STARLINK-3827, 52370

Orbit data source: Space-Track

STARLINK-3827, 52370 is a payload satellite owned by SpaceX/Seattle (US) in LEO that was launched on Fri, 29 Apr 2022 UTC via an FALCON 9 launch vehicle from the Air Force Eastern Test Range (AFETR). Payload-class satellites include a variety of spacecraft equipped with specific instruments for various scientific and technological missions. These include communications satellites like Starlink; space stations such as the ISS; scientific satellites like the Hubble; Earth observation satellites from companies like Planet Labs, Umbra, and HawkEye 360; GPS; miniature CubeSats for education and research; and military/defense satellites.

Loading next visibility...
Identifier
52370, 2022-045AR
Orbit
LEO
Country
Flag of USUS
Related business
Manufacturer
SpaceX/Seattle
Mission
Operational Commercial Communications
Bus & Motor
STARLINK, Unknown motor
Mass
297 kg wet, ~275 kg dry
Launch date (UTC)
2022-04-29 (4 years ago)
Launch vehicle
FALCON 9
Launch site
Air Force Eastern Test Range (AFETR)
Object type
Payload
Rocket body
Debris
Shape & HBR
Box + 1 Pan, 10.1 m
Radar Cross Section
11.087 m², Large (>1 m²)

Expand to show TLE details & history
Last TLE update: 2 days ago

TLE from 2 days ago
0 STARLINK-3827
1 52370U 22045AR  26171.17891271  .00000273  00000-0  35235-4 0  9997
2 52370  53.1616  88.9267 0001438  93.7731 266.3425 15.08841343231390
Epoch: 2026-06-20T04:17Z
TLE epoch observation values (Epoch: 2026-06-20T04:17:38.058Z)
Latitude
0.00001°
Longitude
116.12087°
Altitude
540.694 km
Speed
7.593 km/s
True Right ascension
05h 55m 42s
True Declination
0° 00' 00"
Sunlit
Object was in daylight at epoch
Visualization orbit readout
Latitude
Unknown
Longitude
Unknown
Altitude
Unknown
Speed
Unknown
Apparent Right ascension
Unknown
Apparent Declination
Unknown
Sunlit
N/A
Visualization observer readout
Local Sidereal Time
21:43:33
Azimuth
Unknown
Elevation
Unknown
Doppler factor
Unknown
Orbital elements
Apogee altitude
540.988 km
Perigee altitude
538.998 km
Semi-major axis
6,918.13 km
Eccentricity
0.00014
Inclination
53.1616°
RAAN
88.9267°
Arg. of periapsis
93.7731°
True anomaly
266.32606°
Mean anomaly
266.3425°
Eccentric anomaly
266.33428°
Mean motion
3.7719 °/min
Orbital period
95.44 mins
BSTAR
0.000035235
Loading maneuver chart data...
Computing Atmospheric mass density...
Loading historical data...
Loading historical data...
Loading historical data...
Loading historical data...
Loading historical data...
Loading historical data...
Loading historical data...

Documentation

Showing up to 5 results
|